COSMOS 2251 DEB, 35014

Orbit data source: Space-Track

COSMOS 2251 DEB, 35014 is space debris in LEO originally from a launch on Wed, 16 Jun 1993 UTC launched from the Plesetsk Missile And Space Complex (PKMTR). The debris from Iridium 33, an American commercial communications satellite, has been tracked extensively since its accidental collision with the defunct Russian satellite Cosmos 2251 in 2009. This event, occurring at high speed in low Earth orbit (LEO), generated thousands of pieces of space debris, significantly increasing the risk of further collisions. The Iridium 33 debris cloud has impacted space traffic management and orbital debris mitigation strategies, making it a subject of ongoing study in space situational awareness.

Loading next visibility...
Identifier
35014, 1993-036AGB
Orbit
LEO
Country
Flag of CISCIS
Related business
Manufacturer
Unknown
Mission
Spacecraft
Bus & Motor
Unknown
Mass
Unknown
Launch date (UTC)
1993-06-16 (33 years ago)
Launch vehicle
Unknown
Launch site
Plesetsk Missile And Space Complex (PKMTR)
Object type
Payload
Rocket body
Debris
Shape & HBR
Unknown shape, 0.1 m
Radar Cross Section
Small (<0.1 m²)

Expand to show TLE details & history
Last TLE update: 9 hours ago

TLE from 9 hours ago
0 COSMOS 2251 DEB
1 35014U 93036AGB 26123.27512985  .00010236  00000-0  14048-2 0  9998
2 35014  73.9948 125.4393 0011628 248.5111 111.4825 14.78436798734263
Epoch: 2026-05-03T06:36Z
TLE epoch observation values (Epoch: 2026-05-03T06:36:11.219Z)
Latitude
0.00003°
Longitude
165.21154°
Altitude
639.918 km
Speed
7.537 km/s
True Right ascension
08h 21m 45s
True Declination
0° 00' 00"
Sunlit
Object was in daylight at epoch
Visualization orbit readout
Latitude
Unknown
Longitude
Unknown
Altitude
Unknown
Speed
Unknown
Apparent Right ascension
Unknown
Apparent Declination
Unknown
Sunlit
N/A
Visualization observer readout
Local Sidereal Time
23:34:03
Azimuth
Unknown
Elevation
Unknown
Doppler factor
Unknown
Orbital elements
Apogee altitude
639.995 km
Perigee altitude
623.692 km
Semi-major axis
7,009.981 km
Eccentricity
0.00116
Inclination
73.9948°
RAAN
125.4393°
Arg. of periapsis
248.5111°
True anomaly
111.60642°
Mean anomaly
111.4825°
Eccentric anomaly
111.54447°
Mean motion
3.69801 °/min
Orbital period
97.35 mins
BSTAR
0.0014048

Documentation

Showing up to 5 results
|